User: anonymous   Login
Location: Boursonne
(49.2024°N, 3.0468°E)
Time: 20:34:47
(UTC+00:00)
Language:

Cosmos 2218 Rocket - Orbit

View from above orbital plane
View from above orbital plane
View from above satellite
View from above satellite

Ground track
Ground track

The orbit data is extracted from the following two-line orbital elements,

1 22208U 92073B   21136.71502350  .00000037  00000-0  22657-4 0  9997
2 22208  82.9215  39.9564 0034709  13.1950  43.5622 13.75161776432219
Epoch (UTC): 16 May 2021 17:09:38
Eccentricity: 0.0034709
inclination: 82.9215°
perigee height: 955 km
apogee height: 1006 km
right ascension of ascending node: 39.9564°
argument of perigee: 13.1950°
revolutions per day: 13.75161776
mean anomaly at epoch: 43.5622°
orbit number at epoch: 43221

The dashed part of the orbit path shows where the satellite is in the earth's shadow,  

DLR